| time (UTC) | temp C | wind direction | speed KPH | gust KPH | rain 1hr cm | rain 24hr cm | rain mn cm | humidity % | barometer mb |
| 20260902224546 | 27 | 179 | 0.0 | 0.0 | 0.00 | 0.00 | 0.00 | 75 | 1015.6 |
| 20260902223043 | 27 | 134 | 0.0 | 6.4 | 0.00 | 0.00 | 0.00 | 75 | 1015.8 |
| 20260902221540 | 27 | 138 | 6.4 | 11.3 | 0.00 | 0.00 | 0.00 | 74 | 1016.1 |
| 20260902220052 | 27 | 138 | 3.2 | 14.5 | 0.00 | 0.00 | 0.00 | 73 | 1015.0 |
| 20260902214550 | 27 | 118 | 6.4 | 11.3 | 0.00 | 0.00 | 0.00 | 73 | 1015.3 |
| 20260902213040 | 27 | 127 | 4.8 | 14.5 | 0.00 | 0.00 | 0.00 | 73 | 1015.2 |
| 20260902211550 | 27 | 84 | 4.8 | 11.3 | 0.00 | 0.00 | 0.00 | 74 | 1015.5 |
| 20260902210050 | 27 | 118 | 9.7 | 16.1 | 0.00 | 0.00 | 0.00 | 74 | 1015.5 |
| 20260902204550 | 27 | 103 | 9.7 | 25.7 | 0.00 | 0.00 | 0.00 | 72 | 1016.2 |
| 20260902203041 | 28 | 103 | 9.7 | 19.3 | 0.00 | 0.00 | 0.00 | 69 | 1015.9 |
| 20260902201603 | 28 | 144 | 14.5 | 25.7 | 0.00 | 0.00 | 0.00 | 69 | 1016.1 |
| 20260902200046 | 28 | 136 | 9.7 | 17.7 | 0.00 | 0.00 | 0.00 | 69 | 1016.2 |
| 20260902194543 | 29 | 108 | 9.7 | 30.6 | 0.00 | 0.00 | 0.00 | 68 | 1016.8 |
| 20260902193049 | 31 | 79 | 35.4 | 54.7 | 0.00 | 0.00 | 0.00 | 63 | 1016.6 |
| 20260902191549 | 33 | 93 | 16.1 | 25.7 | 0.00 | 0.00 | 0.00 | 62 | 1015.7 |
| 20260902190042 | 33 | 71 | 8.0 | 27.4 | 0.00 | 0.00 | 0.00 | 62 | 1015.5 |
| 20260902184543 | 33 | 90 | 8.0 | 24.1 | 0.00 | 0.00 | 0.00 | 61 | 1016.1 |
| 20260902183050 | 33 | 125 | 11.3 | 19.3 | 0.00 | 0.00 | 0.00 | 60 | 1016.2 |
| 20260902181554 | 33 | 94 | 6.4 | 16.1 | 0.00 | 0.00 | 0.00 | 60 | 1016.1 |
| 20260902180055 | 33 | 5 | 6.4 | 9.7 | 0.00 | 0.00 | 0.00 | 60 | 1016.3 |
| 20260902174549 | 33 | 88 | 6.4 | 12.9 | 0.00 | 0.00 | 0.00 | 60 | 1016.6 |
| 20260902173040 | 33 | 92 | 8.0 | 16.1 | 0.00 | 0.00 | 0.00 | 60 | 1016.5 |
| 20260902171540 | 33 | 65 | 3.2 | 14.5 | 0.00 | 0.00 | 0.00 | 61 | 1016.6 |
| 20260902170050 | 32 | 319 | 3.2 | 16.1 | 0.00 | 0.00 | 0.00 | 62 | 1016.5 |
| 20260902164552 | 32 | 144 | 1.6 | 12.9 | 0.00 | 0.00 | 0.00 | 62 | 1016.8 |
| 20260902163047 | 32 | 113 | 6.4 | 11.3 | 0.00 | 0.00 | 0.00 | 62 | 1016.7 |
| 20260902161600 | 32 | 111 | 4.8 | 12.9 | 0.00 | 0.00 | 0.00 | 62 | 1016.7 |
| 20260902160049 | 32 | 165 | 0.0 | 6.4 | 0.00 | 0.00 | 0.00 | 62 | 1016.7 |
| 20260902154557 | 32 | 133 | 4.8 | 12.9 | 0.00 | 0.00 | 0.00 | 63 | 1016.5 |
| 20260902153050 | 31 | 59 | 1.6 | 6.4 | 0.00 | 0.00 | 0.00 | 65 | 1016.7 |
| 20260902151545 | 31 | 72 | 1.6 | 9.7 | 0.00 | 0.00 | 0.00 | 67 | 1016.8 |
| 20260902150041 | 30 | 349 | 4.8 | 12.9 | 0.00 | 0.00 | 0.00 | 67 | 1017.0 |
| 20260902144550 | 30 | 66 | 6.4 | 12.9 | 0.00 | 0.00 | 0.00 | 67 | 1016.9 |
| 20260902143056 | 30 | 35 | 4.8 | 14.5 | 0.00 | 0.00 | 0.00 | 73 | 1017.1 |
| 20260902141541 | 30 | 355 | 1.6 | 8.0 | 0.00 | 0.00 | 0.00 | 73 | 1016.7 |
| 20260902140042 | 28 | 5 | 1.6 | 8.0 | 0.00 | 0.00 | 0.00 | 76 | 1016.7 |
| 20260902134553 | 28 | 340 | 0.0 | 6.4 | 0.00 | 0.00 | 0.00 | 77 | 1016.4 |
| 20260902133059 | 27 | 32 | 4.8 | 6.4 | 0.00 | 0.00 | 0.00 | 78 | 1016.3 |
| 20260902131545 | 27 | 274 | 0.0 | 0.0 | 0.00 | 0.00 | 0.00 | 80 | 1016.1 |
| 20260902130054 | 27 | 24 | 1.6 | 8.0 | 0.00 | 0.00 | 0.00 | 81 | 1015.9 |
| 20260902124556 | 26 | 25 | 0.0 | 8.0 | 0.00 | 0.00 | 0.00 | 82 | 1015.9 |
| 20260902123053 | 26 | 47 | 4.8 | 8.0 | 0.00 | 0.00 | 0.00 | 82 | 1015.8 |
| 20260902121558 | 26 | 11 | 0.0 | 0.0 | 0.00 | 0.00 | 0.00 | 82 | 1016.1 |
| 20260902120052 | 26 | 15 | 0.0 | 0.0 | 0.00 | 0.00 | 0.00 | 82 | 1015.9 |
| 20260902114549 | 25 | 355 | 0.0 | 0.0 | 0.00 | 0.00 | 0.00 | 83 | 1015.9 |
| 20260902113047 | 25 | 340 | 0.0 | 0.0 | 0.00 | 0.00 | 0.00 | 83 | 1015.8 |
| 20260902111542 | 25 | 28 | 0.0 | 0.0 | 0.00 | 0.00 | 0.00 | 83 | 1015.7 |
| 20260902110049 | 25 | 345 | 0.0 | 0.0 | 0.00 | 0.00 | 0.00 | 82 | 1015.6 |
| 20260902104551 | 25 | 338 | 0.0 | 1.6 | 0.00 | 0.00 | 0.00 | 81 | 1015.5 |
| 20260902103047 | 25 | 355 | 0.0 | 0.0 | 0.00 | 0.00 | 0.00 | 81 | 1015.5 |
| 20260902101555 | 25 | 355 | 0.0 | 0.0 | 0.00 | 0.00 | 0.00 | 81 | 1015.1 |
| 20260902100050 | 25 | 340 | 0.0 | 0.0 | 0.00 | 0.00 | 0.00 | 81 | 1015.1 |
| 20260902094549 | 26 | 22 | 0.0 | 0.0 | 0.00 | 0.00 | 0.00 | 81 | 1015.2 |
| 20260902093123 | 26 | 360 | 1.6 | 4.8 | 0.00 | 0.00 | 0.00 | 81 | 1014.9 |
| 20260902091554 | 26 | 338 | 0.0 | 0.0 | 0.00 | 0.00 | 0.00 | 78 | 1014.8 |
| 20260902090056 | 26 | 112 | 0.0 | 0.0 | 0.00 | 0.00 | 0.00 | 78 | 1015.1 |
| 20260902084557 | 26 | 294 | 0.0 | 1.6 | 0.00 | 0.00 | 0.00 | 78 | 1015.0 |
| 20260902083055 | 26 | 250 | 0.0 | 0.0 | 0.00 | 0.00 | 0.00 | 78 | 1014.9 |
| 20260902081610 | 26 | 309 | 0.0 | 6.4 | 0.00 | 0.00 | 0.00 | 80 | 1014.9 |
| 20260902080051 | 26 | 328 | 0.0 | 3.2 | 0.00 | 0.00 | 0.00 | 82 | 1015.0 |
| 20260902074559 | 26 | 5 | 0.0 | 4.8 | 0.00 | 0.00 | 0.00 | 81 | 1014.9 |
| 20260902073053 | 26 | 9 | 0.0 | 6.4 | 0.00 | 0.00 | 0.00 | 76 | 1015.0 |
| 20260902071602 | 27 | 355 | 0.0 | 1.6 | 0.00 | 0.00 | 0.00 | 79 | 1015.0 |
| 20260902070053 | 27 | 360 | 0.0 | 0.0 | 0.00 | 0.00 | 0.00 | 81 | 1015.0 |
| 20260902064614 | 27 | 13 | 0.0 | 1.6 | 0.00 | 0.00 | 0.00 | 77 | 1014.4 |
| 20260902063058 | 27 | 323 | 0.0 | 0.0 | 0.00 | 0.00 | 0.00 | 78 | 1014.5 |
| 20260902061559 | 27 | 85 | 0.0 | 1.6 | 0.00 | 0.00 | 0.00 | 80 | 1014.4 |
| 20260902060042 | 28 | 67 | 0.0 | 4.8 | 0.00 | 0.00 | 0.00 | 77 | 1014.4 |
| 20260902054721 | 28 | 317 | 3.2 | 8.0 | 0.00 | 0.00 | 0.00 | 75 | 1014.3 |
| 20260902053052 | 28 | 301 | 0.0 | 3.2 | 0.00 | 0.00 | 0.00 | 75 | 1014.3 |
| 20260902051546 | 28 | 259 | 3.2 | 12.9 | 0.00 | 0.00 | 0.00 | 75 | 1014.4 |
| 20260902050108 | 28 | 5 | 0.0 | 0.0 | 0.00 | 0.00 | 0.00 | 77 | 1014.6 |
| 20260902044606 | 28 | 275 | 0.0 | 0.0 | 0.00 | 0.00 | 0.00 | 78 | 1014.6 |
| 20260902043050 | 28 | 311 | 0.0 | 0.0 | 0.00 | 0.00 | 0.00 | 78 | 1014.6 |
| 20260902041546 | 28 | 355 | 0.0 | 0.0 | 0.00 | 0.00 | 0.00 | 78 | 1014.6 |
| 20260902040055 | 28 | 308 | 0.0 | 0.0 | 0.00 | 0.00 | 0.00 | 77 | 1014.4 |
| 20260902034600 | 28 | 308 | 0.0 | 1.6 | 0.00 | 0.00 | 0.00 | 76 | 1014.3 |
| 20260902033103 | 28 | 251 | 1.6 | 6.4 | 0.00 | 0.00 | 0.00 | 75 | 1014.0 |
| 20260902031547 | 29 | 279 | 4.8 | 11.3 | 0.00 | 0.00 | 0.00 | 74 | 1013.9 |
| 20260902030055 | 29 | 313 | 3.2 | 9.7 | 0.00 | 0.00 | 0.00 | 73 | 1013.7 |
| 20260902024552 | 30 | 265 | 3.2 | 8.0 | 0.00 | 0.00 | 0.00 | 71 | 1013.9 |
| 20260902023053 | 30 | 319 | 1.6 | 6.4 | 0.00 | 0.00 | 0.00 | 70 | 1013.7 |
| 20260902021551 | 30 | 314 | 3.2 | 8.0 | 0.00 | 0.00 | 0.00 | 69 | 1013.6 |
| 20260902020043 | 30 | 266 | 1.6 | 8.0 | 0.00 | 0.00 | 0.00 | 69 | 1013.6 |
| 20260902014553 | 30 | 255 | 6.4 | 12.9 | 0.00 | 0.00 | 0.00 | 70 | 1013.6 |
| 20260902013050 | 30 | 284 | 3.2 | 12.9 | 0.00 | 0.00 | 0.00 | 70 | 1013.5 |
| 20260902011549 | 30 | 228 | 6.4 | 11.3 | 0.00 | 0.00 | 0.00 | 70 | 1013.2 |
| 20260902010045 | 31 | 254 | 9.7 | 14.5 | 0.00 | 0.00 | 0.00 | 69 | 1012.6 |
| 20260902004555 | 31 | 282 | 4.8 | 12.9 | 0.00 | 0.00 | 0.00 | 67 | 1012.7 |
| 20260902003053 | 31 | 209 | 6.4 | 14.5 | 0.00 | 0.00 | 0.00 | 66 | 1012.4 |
| 20260902001550 | 32 | 194 | 8.0 | 14.5 | 0.00 | 0.00 | 0.00 | 65 | 1012.4 |
| 20260902000104 | 32 | 194 | 6.4 | 11.3 | 0.00 | 0.00 | 0.00 | 62 | 1012.4 |
| 20260901234543 | 32 | 193 | 6.4 | 14.5 | 0.00 | 0.00 | 0.00 | 61 | 1012.4 |
| 20260901233053 | 33 | 198 | 4.8 | 9.7 | 0.00 | 0.00 | 0.00 | 59 | 1012.4 |
| 20260901231551 | 33 | 233 | 1.6 | 11.3 | 0.00 | 0.00 | 0.00 | 58 | 1012.6 |
| 20260901230051 | 33 | 232 | 4.8 | 11.3 | 0.00 | 0.00 | 0.00 | 56 | 1012.6 |